DW8935 Weather Reports


time (UTC)temp
C
wind
direction
speed
KPH
gust
KPH
rain 1hr
cm
rain 24hr
cm
rain mn
cm
humidity
%
barometer
mb
20260906203022 11 263 4.8 12.9 0.00 0.00 0.00 89 1024.0
20260906201521 11 269 1.6 11.3 0.00 0.00 0.00 89 1023.9
20260906200035 11 267 4.8 11.3 0.00 0.00 0.00 88 1023.7
20260906194518 11 288 3.2 9.7 0.00 0.00 0.00 88 1023.6
20260906193017 11 302 4.8 11.3 0.00 0.00 0.00 87 1023.4
20260906191528 11 242 1.6 9.7 0.00 0.00 0.00 86 1023.5
20260906190015 11 257 3.2 11.3 0.00 0.00 0.00 86 1023.5
20260906184512 11 267 3.2 9.7 0.00 0.00 0.00 84 1023.3
20260906183014 11 279 1.6 11.3 0.00 0.00 0.00 83 1023.0
20260906181535 11 246 1.6 11.3 0.00 0.00 0.00 82 1023.2
20260906180020 12 296 1.6 9.7 0.00 0.00 0.00 82 1022.8
20260906174509 12 281 3.2 11.3 0.00 0.00 0.00 82 1023.0
20260906173008 12 239 1.6 12.9 0.00 0.00 0.00 80 1022.9
20260906171505 12 239 4.8 12.9 0.00 0.00 0.00 79 1023.1
20260906170006 12 315 1.6 16.1 0.00 0.00 0.00 80 1023.0
20260906164502 12 267 1.6 14.5 0.00 0.00 0.00 80 1023.0
20260906163001 12 278 1.6 9.7 0.00 0.00 0.00 79 1023.1
20260906161502 12 286 1.6 11.3 0.00 0.00 0.00 79 1023.1
20260906160100 13 265 1.6 8.0 0.00 0.00 0.00 78 1023.2
20260906154559 13 265 0.0 9.7 0.00 0.00 0.00 76 1023.2
20260906153059 12 240 1.6 6.4 0.00 0.00 0.00 74 1023.4
20260906151604 12 223 3.2 11.3 0.00 0.00 0.00 75 1023.3
20260906150056 13 246 0.0 6.4 0.00 0.00 0.00 78 1023.1
20260906144609 13 259 0.0 8.0 0.00 0.00 0.00 79 1023.1
20260906143107 13 237 0.0 8.0 0.00 0.00 0.00 79 1023.2
20260906141554 13 278 0.0 9.7 0.00 0.00 0.00 79 1023.1
20260906140051 13 238 1.6 8.0 0.00 0.00 0.00 80 1023.0
20260906134552 13 277 4.8 11.3 0.00 0.00 0.00 81 1023.1
20260906133105 13 313 0.0 6.4 0.00 0.00 0.00 82 1023.3
20260906131551 13 271 0.0 9.7 0.00 0.00 0.00 82 1023.4
20260906124550 13 276 1.6 6.4 0.00 0.00 0.00 82 1023.5
20260906123050 13 291 0.0 4.8 0.00 0.00 0.00 82 1023.5
20260906121550 13 295 1.6 8.0 0.00 0.00 0.00 82 1023.6
20260906120050 13 260 0.0 11.3 0.00 0.00 0.00 81 1023.6
20260906114556 13 286 0.0 9.7 0.00 0.00 0.00 81 1023.6
20260906113048 13 278 0.0 9.7 0.00 0.00 0.00 81 1023.6
20260906111548 13 286 1.6 9.7 0.00 0.00 0.00 80 1023.6
20260906110116 13 267 0.0 6.4 0.00 0.00 0.00 79 1023.5
20260906104550 13 269 0.0 4.8 0.00 0.00 0.00 79 1023.3
20260906103042 13 250 0.0 6.4 0.00 0.00 0.00 79 1023.2
20260906101542 14 260 1.6 8.0 0.00 0.00 0.00 78 1023.1
20260906100041 14 254 1.6 8.0 0.00 0.00 0.00 78 1023.1
20260906094558 14 234 4.8 11.3 0.00 0.00 0.00 78 1023.0
20260906093057 14 246 1.6 11.3 0.00 0.00 0.00 77 1022.8
20260906091539 15 267 3.2 16.1 0.00 0.00 0.00 76 1022.7
20260906090038 15 273 1.6 8.0 0.00 0.00 0.00 74 1022.6
20260906084537 15 290 1.6 9.7 0.00 0.00 0.00 73 1022.4
20260906083045 15 242 0.0 4.8 0.00 0.00 0.00 73 1022.2
20260906081538 15 261 0.0 8.0 0.00 0.00 0.00 72 1022.1
20260906080040 15 242 0.0 8.0 0.00 0.00 0.00 72 1022.0
20260906074534 15 261 0.0 8.0 0.00 0.00 0.00 71 1021.8
20260906073031 15 236 3.2 12.9 0.00 0.00 0.00 70 1021.7
20260906071531 16 266 4.8 14.5 0.00 0.00 0.00 68 1021.7
20260906070030 16 288 1.6 9.7 0.00 0.00 0.00 66 1021.5
20260906064529 16 234 3.2 12.9 0.00 0.00 0.00 65 1021.5
20260906063031 16 227 3.2 16.1 0.00 0.00 0.00 64 1021.4
20260906061529 16 277 3.2 16.1 0.00 0.00 0.00 63 1021.4
20260906060028 16 259 9.7 22.5 0.00 0.00 0.00 64 1021.4
20260906054526 17 251 8.0 24.1 0.00 0.00 0.00 62 1021.2
20260906053025 17 233 4.8 24.1 0.00 0.00 0.00 62 1021.2
20260906051525 17 276 8.0 16.1 0.00 0.00 0.00 62 1021.1
20260906050025 18 237 6.4 19.3 0.00 0.00 0.00 62 1021.0
20260906044524 18 270 4.8 12.9 0.00 0.00 0.00 60 1020.8
20260906043024 17 269 0.0 9.7 0.00 0.00 0.00 60 1020.6
20260906041522 17 229 1.6 9.7 0.00 0.00 0.00 61 1020.7
20260906040028 18 300 0.0 16.1 0.00 0.00 0.00 59 1020.7
20260906034520 18 279 0.0 12.9 0.00 0.00 0.00 60 1020.7
20260906033025 17 222 6.4 16.1 0.00 0.00 0.00 61 1020.7
20260906031518 18 261 4.8 17.7 0.00 0.00 0.00 60 1020.9
20260906030015 17 296 4.8 16.1 0.00 0.00 0.00 63 1021.0
20260906024531 17 281 3.2 16.1 0.00 0.00 0.00 64 1021.1
20260906023018 17 238 4.8 17.7 0.00 0.00 0.00 68 1021.2
20260906021511 17 229 6.4 19.3 0.00 0.00 0.00 71 1021.4
20260906020008 16 247 3.2 12.9 0.00 0.00 0.00 74 1021.4
20260906014508 16 257 6.4 20.9 0.00 0.00 0.00 76 1021.5
20260906013008 15 176 8.0 17.7 0.00 0.00 0.00 78 1021.4
20260906011606 15 268 4.8 19.3 0.00 0.00 0.00 81 1021.5
20260906010058 15 277 4.8 17.7 0.00 0.00 0.00 84 1021.5
20260906004609 15 252 3.2 19.3 0.00 0.00 0.00 88 1021.5
20260906003110 14 290 6.4 14.5 0.00 0.00 0.00 93 1021.5
20260906001551 13 281 4.8 17.7 0.00 0.00 0.00 94 1021.4
20260906000048 13 254 3.2 12.9 0.00 0.00 0.00 94 1021.2
20260905234546 12 248 1.6 6.4 0.00 0.00 0.00 94 1021.2
20260905233048 12 252 1.6 9.7 0.00 0.00 0.00 94 1021.1
20260905231545 12 264 0.0 4.8 0.00 0.00 0.00 94 1021.0
20260905230042 12 265 1.6 8.0 0.00 0.00 0.00 94 1020.8
20260905224540 12 266 1.6 6.4 0.00 0.00 0.00 94 1020.5
20260905223040 12 291 1.6 6.4 0.00 0.00 0.00 94 1020.3
20260905221556 12 251 0.0 3.2 0.00 0.00 0.00 94 1020.0
20260905220036 11 290 0.0 6.4 0.00 0.00 0.00 94 1019.8
20260905214533 11 320 0.0 8.0 0.00 0.00 0.00 94 1019.6
20260905213040 11 292 0.0 6.4 0.00 0.00 0.00 94 1019.3
20260905211538 11 265 0.0 6.4 0.00 0.00 0.00 94 1019.0
20260905210036 11 279 0.0 4.8 0.00 0.00 0.00 94 1018.9
20260905204530 11 272 0.0 4.8 0.00 0.00 0.00 93 1018.5